Weather History for Milton, FL

Change the Weather History Date:

Wednesday, February 6, 2013

  Actual Average (KNSE) Record (KNSE)
Temperature  
Mean Temperature 64 °F -  
Max Temperature 73 °F 60 °F 73 °F (2008)
Min Temperature 54 °F 43 °F 26 °F (2009)
Degree Days  
Heating Degree Days 2    
Growing Degree Days 14 (Base 50)    
Moisture  
Dew Point 55 °F    
Average Humidity 83    
Maximum Humidity 100    
Minimum Humidity 53    
Precipitation  
Precipitation 0.01 in - - ()
Sea Level Pressure  
Sea Level Pressure 30.06 in    
Wind  
Wind Speed 4 mph (East)    
Max Wind Speed 10 mph    
Max Gust Speed -    
Visibility 6 miles    
Events Fog    
Averages and records for this station are not official NWS values.
T = Trace of Precipitation, MM = Missing Value Source: NWS Daily Summary

Daily Weather History Graph

Daily Weather History Graph

Search for Another Location

Airport:

Trip Planner

Search our weather history database for the weather conditions in past years. The results will help you decide how hot, cold, wet, or windy it might be!

Date:

Astronomy

Feb. 06, 2013 Rise Set
Actual Time 6:35 AM CST 5:28 PM CST
Civil Twilight 6:10 AM CST 5:53 PM CST
Nautical Twilight 5:42 AM CST 6:22 PM CST
Astronomical Twilight 5:14 AM CST 6:50 PM CST
Moon 3:11 AM CST (2/6) 1:54 PM CST (2/6)
Length of Visible Light 11h 42m
Length of Day
10h 52m
Waning Crescent, 17% of the Moon is Illuminated
Feb 6
Waning Crescent
Feb 10
New
Feb 17
First Quarter
Feb 25
Full
Mar 4
Last Quarter

Hourly Weather History & Observations

Time (CST) Temp. Dew Point Humidity Pressure Visibility Wind Dir Wind Speed Gust Speed Precip Events Conditions
12:56 AM 55.9 °F 55.0 °F 97% 30.01 in 0.5 mi East 3.5 mph - N/A Fog Fog
1:56 AM 55.9 °F 55.0 °F 97% 30.02 in 0.5 mi Calm Calm - N/A Fog Fog
2:36 AM 57.2 °F 55.4 °F 94% 30.05 in 1.0 mi ENE 4.6 mph - N/A   Mist
2:45 AM 55.4 °F 55.4 °F 100% 30.06 in 0.8 mi NE 3.5 mph - N/A   Mist
2:56 AM 55.9 °F 55.0 °F 97% 30.02 in 0.8 mi Calm Calm - N/A   Mist
3:56 AM 55.9 °F 54.0 °F 93% 30.03 in 0.5 mi East 3.5 mph - N/A Fog Fog
4:56 AM 55.0 °F 54.0 °F 96% 30.04 in 0.5 mi NNE 5.8 mph - 0.01 in Fog Fog
5:56 AM 55.0 °F 54.0 °F 96% 30.07 in 0.8 mi ENE 3.5 mph - N/A   Mist
6:56 AM 54.0 °F 53.1 °F 97% 30.08 in 0.2 mi NE 5.8 mph - N/A Fog Fog
7:56 AM 55.0 °F 54.0 °F 96% 30.09 in 0.2 mi NE 5.8 mph - N/A Fog Fog
8:56 AM 57.0 °F 55.9 °F 96% 30.10 in 1.0 mi ENE 5.8 mph - N/A   Mist
9:06 AM 57.2 °F 55.4 °F 94% 30.14 in 3.0 mi ENE 4.6 mph - N/A   Overcast
9:56 AM 60.1 °F 57.0 °F 90% 30.12 in 10.0 mi East 4.6 mph - N/A   Overcast
10:17 AM 60.8 °F 57.2 °F 88% 30.15 in 10.0 mi East 8.1 mph - N/A   Overcast
10:56 AM 62.1 °F 55.9 °F 80% 30.11 in 10.0 mi ESE 5.8 mph - N/A   Overcast
11:31 AM 64.4 °F 55.4 °F 73% 30.13 in 10.0 mi ESE 3.5 mph - N/A   Partly Cloudy
11:56 AM 68.0 °F 55.9 °F 65% 30.09 in 10.0 mi ENE 5.8 mph - N/A   Partly Cloudy
12:56 PM 70.0 °F 55.9 °F 61% 30.06 in 10.0 mi Variable 4.6 mph - N/A   Scattered Clouds
1:05 PM 71.6 °F 55.4 °F 57% 30.09 in 10.0 mi ENE 6.9 mph - N/A   Mostly Cloudy
1:32 PM 69.8 °F 55.4 °F 60% 30.09 in 10.0 mi ESE 5.8 mph - N/A   Scattered Clouds
1:56 PM 71.1 °F 55.9 °F 59% 30.05 in 10.0 mi ESE 5.8 mph - N/A   Partly Cloudy
2:56 PM 73.0 °F 55.0 °F 53% 30.02 in 10.0 mi East 10.4 mph - N/A   Clear
3:56 PM 71.1 °F 54.0 °F 55% 30.01 in 10.0 mi ENE 8.1 mph - N/A   Clear
4:56 PM 69.1 °F 54.0 °F 58% 30.00 in 10.0 mi East 6.9 mph - N/A   Clear
5:56 PM 61.0 °F 53.1 °F 75% 30.02 in 10.0 mi South 4.6 mph - N/A   Clear
6:56 PM 63.0 °F 57.0 °F 81% 30.03 in 10.0 mi Calm Calm - N/A   Mostly Cloudy
7:56 PM 57.0 °F 55.0 °F 93% 30.04 in 10.0 mi Calm Calm - N/A   Clear
8:56 PM 55.0 °F 53.1 °F 93% 30.03 in 10.0 mi Calm Calm - N/A   Clear
9:56 PM 55.9 °F 54.0 °F 93% 30.02 in 10.0 mi South 4.6 mph - N/A   Clear
10:56 PM 57.0 °F 55.0 °F 93% 30.04 in 10.0 mi Calm Calm - N/A   Scattered Clouds
11:56 PM 59.0 °F 55.9 °F 90% 30.01 in 10.0 mi NE 3.5 mph - 0.00 in   Overcast